| time (UTC) | temp F | wind direction | speed MPH | gust MPH | rain 1hr in | rain 24hr in | rain mn in | humidity % | barometer mb |
| 20260902073231 | 63 | 240 | 6.0 | 0.0 | 0.00 | 0.00 | 0.00 | 72 | 1021.0 |
| 20260902072255 | 61 | 250 | 7.0 | 0.0 | 0.00 | 0.00 | 0.00 | 77 | |
| 20260902070239 | 59 | 250 | 6.0 | 0.0 | 0.00 | 0.00 | 0.00 | 82 | 1021.0 |
| 20260902063229 | 57 | 240 | 5.0 | 0.0 | 0.00 | 0.00 | 0.00 | 82 | 1021.0 |
| 20260902062155 | 55 | 250 | 7.0 | 0.0 | 0.00 | 0.00 | 0.00 | 87 | |
| 20260902060230 | 55 | 250 | 6.0 | 0.0 | 0.00 | 0.00 | 0.00 | 87 | 1021.0 |
| 20260902053224 | 55 | 230 | 6.0 | 0.0 | 0.00 | 0.00 | 0.00 | 82 | 1021.0 |
| 20260902052338 | 55 | 210 | 7.0 | 0.0 | 0.00 | 0.00 | 0.00 | 82 | |
| 20260902050226 | 54 | 210 | 7.0 | 0.0 | 0.00 | 0.00 | 0.00 | 87 | 1021.0 |
| 20260902043224 | 54 | 230 | 7.0 | 0.0 | 0.00 | 0.00 | 0.00 | 87 | 1021.0 |
| 20260902042458 | 52 | 230 | 5.0 | 0.0 | 0.00 | 0.00 | 0.00 | 93 | |
| 20260902040238 | 52 | 240 | 5.0 | 0.0 | 0.00 | 0.00 | 0.00 | 87 | 1021.0 |
| 20260902033224 | 54 | 230 | 8.0 | 0.0 | 0.00 | 0.00 | 0.00 | 87 | 1021.0 |
| 20260902032608 | 54 | 220 | 9.0 | 0.0 | 0.00 | 0.00 | 0.00 | 87 | |
| 20260902032155 | 54 | 220 | 9.0 | 0.0 | 0.00 | 0.00 | 0.00 | 87 | |
| 20260902030239 | 54 | 220 | 8.0 | 0.0 | 0.00 | 0.00 | 0.00 | 87 | 1021.0 |
| 20260902023223 | 54 | 220 | 6.0 | 0.0 | 0.00 | 0.00 | 0.00 | 87 | 1021.0 |
| 20260902022355 | 55 | 220 | 7.0 | 0.0 | 0.00 | 0.00 | 0.00 | 82 | |
| 20260902020233 | 54 | 220 | 7.0 | 0.0 | 0.00 | 0.00 | 0.00 | 87 | 1021.0 |
| 20260902013223 | 52 | 220 | 7.0 | 0.0 | 0.00 | 0.00 | 0.00 | 87 | 1021.0 |
| 20260902012355 | 54 | 220 | 7.0 | 0.0 | 0.00 | 0.00 | 0.00 | 87 | |
| 20260902010235 | 54 | 220 | 7.0 | 0.0 | 0.00 | 0.00 | 0.00 | 81 | 1021.0 |
| 20260902003224 | 54 | 0 | 2.0 | 0.0 | 0.00 | 0.00 | 0.00 | 81 | 1021.0 |
| 20260902002156 | 54 | 0 | 5.0 | 0.0 | 0.00 | 0.00 | 0.00 | 87 | |
| 20260902000241 | 54 | 230 | 5.0 | 0.0 | 0.00 | 0.00 | 0.00 | 87 | 1021.0 |
| 20260901233224 | 55 | 210 | 5.0 | 0.0 | 0.00 | 0.00 | 0.00 | 82 | 1021.0 |
| 20260901232339 | 54 | 220 | 5.0 | 0.0 | 0.00 | 0.00 | 0.00 | 87 | |
| 20260901230234 | 52 | 230 | 6.0 | 0.0 | 0.00 | 0.00 | 0.00 | 87 | 1021.0 |
| 20260901223224 | 57 | 220 | 6.0 | 0.0 | 0.00 | 0.00 | 0.00 | 71 | 1021.0 |
| 20260901222442 | 59 | 190 | 5.0 | 0.0 | 0.00 | 0.00 | 0.00 | 72 | |
| 20260901220236 | 59 | 190 | 3.0 | 0.0 | 0.00 | 0.00 | 0.00 | 72 | 1021.0 |
| 20260901213224 | 54 | 220 | 7.0 | 0.0 | 0.00 | 0.00 | 0.00 | 87 | 1021.0 |
| 20260901212155 | 57 | 230 | 7.0 | 0.0 | 0.00 | 0.00 | 0.00 | 76 | |
| 20260901210240 | 57 | 240 | 5.0 | 0.0 | 0.00 | 0.00 | 0.00 | 82 | 1021.0 |
| 20260901203224 | 61 | 0 | 2.0 | 0.0 | 0.00 | 0.00 | 0.00 | 67 | 1021.0 |
| 20260901202354 | 61 | 190 | 5.0 | 0.0 | 0.00 | 0.00 | 0.00 | 72 | |
| 20260901200233 | 63 | 190 | 3.0 | 0.0 | 0.00 | 0.00 | 0.00 | 67 | 1021.0 |
| 20260901193223 | 63 | 160 | 2.0 | 0.0 | 0.00 | 0.00 | 0.00 | 63 | 1021.0 |
| 20260901192355 | 64 | 0 | 2.0 | 0.0 | 0.00 | 0.00 | 0.00 | 59 | |
| 20260901190232 | 64 | 0 | 2.0 | 0.0 | 0.00 | 0.00 | 0.00 | 55 | 1020.0 |
| 20260901183231 | 66 | 250 | 5.0 | 0.0 | 0.00 | 0.00 | 0.00 | 52 | 1020.0 |
| 20260901182155 | 66 | 260 | 7.0 | 0.0 | 0.00 | 0.00 | 0.00 | 55 | |
| 20260901180232 | 66 | 260 | 6.0 | 0.0 | 0.00 | 0.00 | 0.00 | 55 | 1020.0 |
| 20260901173224 | 68 | 240 | 6.0 | 0.0 | 0.00 | 0.00 | 0.00 | 52 | 1020.0 |
| 20260901172355 | 72 | 260 | 7.0 | 0.0 | 0.00 | 0.00 | 0.00 | 49 | |
| 20260901170240 | 70 | 260 | 6.0 | 0.0 | 0.00 | 0.00 | 0.00 | 52 | 1020.0 |
| 20260901163230 | 72 | 270 | 8.0 | 0.0 | 0.00 | 0.00 | 0.00 | 46 | 1020.0 |
| 20260901162459 | 72 | 260 | 12.0 | 0.0 | 0.00 | 0.00 | 0.00 | 46 | |
| 20260901160232 | 72 | 270 | 10.0 | 0.0 | 0.00 | 0.00 | 0.00 | 43 | 1020.0 |
| 20260901153230 | 73 | 270 | 10.0 | 0.0 | 0.00 | 0.00 | 0.00 | 40 | 1020.0 |
| 20260901152156 | 73 | 250 | 14.0 | 0.0 | 0.00 | 0.00 | 0.00 | 40 | |
| 20260901150232 | 73 | 250 | 14.0 | 0.0 | 0.00 | 0.00 | 0.00 | 43 | 1019.0 |
| 20260901143230 | 72 | 280 | 9.0 | 0.0 | 0.00 | 0.00 | 0.00 | 43 | 1019.0 |
| 20260901142355 | 73 | 260 | 14.0 | 0.0 | 0.00 | 0.00 | 0.00 | 40 | |
| 20260901140232 | 72 | 260 | 14.0 | 0.0 | 0.00 | 0.00 | 0.00 | 43 | 1019.0 |
| 20260901133231 | 75 | 260 | 15.0 | 0.0 | 0.00 | 0.00 | 0.00 | 38 | 1019.0 |
| 20260901132256 | 75 | 260 | 16.0 | 0.0 | 0.00 | 0.00 | 0.00 | 38 | |
| 20260901130240 | 75 | 260 | 15.0 | 0.0 | 0.00 | 0.00 | 0.00 | 38 | 1019.0 |
| 20260901123238 | 73 | 250 | 13.0 | 0.0 | 0.00 | 0.00 | 0.00 | 40 | 1019.0 |
| 20260901122211 | 72 | 260 | 14.0 | 0.0 | 0.00 | 0.00 | 0.00 | 43 | |
| 20260901120233 | 73 | 250 | 15.0 | 0.0 | 0.00 | 0.00 | 0.00 | 43 | 1020.0 |
| 20260901113231 | 75 | 250 | 15.0 | 0.0 | 0.00 | 0.00 | 0.00 | 41 | 1020.0 |
| 20260901112257 | 73 | 250 | 14.0 | 0.0 | 0.00 | 0.00 | 0.00 | 43 | |
| 20260901110234 | 72 | 250 | 15.0 | 0.0 | 0.00 | 0.00 | 0.00 | 46 | 1020.0 |
| 20260901103231 | 72 | 250 | 17.0 | 0.0 | 0.00 | 0.00 | 0.00 | 46 | 1020.0 |
| 20260901102525 | 72 | 250 | 16.0 | 0.0 | 0.00 | 0.00 | 0.00 | 46 | |
| 20260901100231 | 70 | 250 | 15.0 | 0.0 | 0.00 | 0.00 | 0.00 | 49 | 1020.0 |
| 20260901093230 | 72 | 240 | 16.0 | 0.0 | 0.00 | 0.00 | 0.00 | 46 | 1020.0 |
| 20260901092211 | 72 | 240 | 18.0 | 0.0 | 0.00 | 0.00 | 0.00 | 46 | |
| 20260901090240 | 72 | 240 | 18.0 | 0.0 | 0.00 | 0.00 | 0.00 | 46 | 1020.0 |
| 20260901083231 | 70 | 240 | 14.0 | 0.0 | 0.00 | 0.00 | 0.00 | 49 | 1019.0 |
| 20260901082430 | 70 | 240 | 12.0 | 0.0 | 0.00 | 0.00 | 0.00 | 52 | |
| 20260901080234 | 68 | 240 | 10.0 | 0.0 | 0.00 | 0.00 | 0.00 | 56 | 1019.0 |